www.pogodaiklimat.ru

ПОГОДА в Вашингтоне, MO

  • Прогноз погоды в Вашингтоне
  • Монитор погоды в Вашингтоне
  • Климат в Вашингтоне

АРХИВ ПОГОДЫ в Вашингтоне

Время (UTC), дата Ветер
(напр.,м/с)
 
Видим.   Явления Облачность Т
(С)
Тd
(С)
f
(%)
Тe
(С)
Тes
(С)
Комфортность

P
(гПа)

Po
(гПа)
Тmin
(С)
Tmax
(С)
R
(мм)
SD
(см)
05:15 22.08   16 км    2/0 3600 м
[средняя] 
+22.0  +22.0  100  +29  +29  очень
душно 
  1014.3         
05:35 22.08 З  16 км    ясно  +22.0  +22.0  100  +29  +29  очень
душно 
  1013.6         
05:55 22.08   16 км    ясно  +22.0  +22.0  100  +29  +29  очень
душно 
  1013.3         
06:15 22.08 СЗ  16 км    ясно  +22.0  +22.0  100  +29  +29  очень
душно 
  1013.6         
06:35 22.08 С  16 км    ясно  +22.0  +22.0  100  +29  +29  очень
душно 
  1013.6         
06:55 22.08 С  16 км    2/0 3300 м
[средняя] 
+22.0  +22.0  100  +29  +29  очень
душно 
  1013.9         
07:15 22.08 С  16 км    5/2 1020 м
[средняя] 
+22.0  +22.0  100  +29  +29  очень
душно 
  1013.9         
07:35 22.08 СВ  16 км    5/2 990 м
[средняя] 
+22.0  +22.0  100  +29  +29  очень
душно 
  1013.9         
07:55 22.08 СВ  16 км    5/0 3300 м
[средняя] 
+22.0  +22.0  100  +29  +29  очень
душно 
  1013.9         
08:15 22.08 СВ  16 км    5/0 3300 м
[средняя] 
+22.0  +22.0  100  +29  +29  очень
душно 
  1013.9         
08:35 22.08 СВ  16 км    5/2 750 м
[средняя] 
+22.0  +22.0  100  +29  +29  очень
душно 
  1013.6         
08:55 22.08   16 км    5/0 3000 м
[средняя] 
+22.0  +22.0  100  +29  +29  очень
душно 
  1013.6         
09:15 22.08 СЗ  16 км    2/2 1800 м
[средняя] 
+22.0  +22.0  100  +29  +29  очень
душно 
  1013.6         
09:35 22.08   16 км    8/0 2400 м
[средняя] 
+22.0  +22.0  100  +29  +29  очень
душно 
  1013.9         
09:55 22.08   14 км    5/0 2400 м
[средняя] 
+21.0  +21.0  100  +26  +26  душно    1014.3         
10:15 22.08   13 км    2/0 3000 м
[средняя] 
+22.0  +22.0  100  +29  +29  очень
душно 
  1014.3         
10:35 22.08   14 км    5/0 3000 м
[средняя] 
+22.0  +22.0  100  +29  +29  очень
душно 
  1014.3         
10:55 22.08   11 км    5/0 3000 м
[средняя] 
+22.0  +22.0  100  +29  +29  очень
душно 
  1014.3         
11:15 22.08   8 км  дымка  5/2 750 м
[средняя] 
+22.0  +22.0  100  +29  +31  очень
душно 
  1014.6         
11:35 22.08   16 км    5/5 630 м  +22.0  +22.0  100  +29  +30  очень
душно 
  1014.6         
11:55 22.08 Ю  16 км    8/8 570 м  +22.0  +22.0  100  +29  +29  очень
душно 
  1014.6         
12:15 22.08 ЮЗ  16 км    10/10 510 м  +23.0  +23.0  100  +32  +32  очень
душно 
  1015.0         
12:35 22.08 ЮЗ  16 км    10/10 450 м  +23.0  +23.0  100  +32  +32  очень
душно 
  1015.0         
12:55 22.08   16 км    10/10 450 м  +23.0  +23.0  100  +32  +32  очень
душно 
  1015.0         
13:15 22.08   16 км    10/10 450 м  +23.0  +23.0  100  +32  +32  очень
душно 
  1015.0         
13:35 22.08   16 км    8/8 540 м  +23.0  +22.0  94  +31  +34  очень
душно 
  1015.0         
13:55 22.08 ЮЗ  16 км    8/8 390 м  +23.0  +22.0  94  +31  +33  очень
душно 
  1015.3         
14:15 22.08 Ю  16 км    8/8 390 м  +24.0  +23.0  94  +32  +35  очень
душно 
  1015.3         
14:35 22.08   16 км    5/5 450 м  +24.0  +22.0  89  +31  +40  очень
душно 
  1015.3         
14:55 22.08   16 км    8/8 390 м  +24.0  +22.0  89  +31  +35  очень
душно 
  1015.6         
15:15 22.08   16 км    8/8 390 м  +24.0  +22.0  89  +31  +36  очень
душно 
  1015.3         
15:35 22.08 Ю  16 км    5/5 450 м  +24.0  +22.0  89  +31  +39  очень
душно 
  1015.3         
15:55 22.08 Ю  16 км    5/5 450 м  +24.0  +23.0  94  +32  +39  очень
душно 
  1015.0         
16:15 22.08 Ю  16 км    8/8 450 м  +24.0  +22.0  89  +31  +34  очень
душно 
  1015.0         
16:35 22.08 Ю  16 км    10/10 510 м  +24.0  +22.0  89  +31  +31  очень
душно 
  1014.3         
16:55 22.08   16 км    10/10 420 м  +25.0  +22.0  83  +32  +32  очень
душно 
  1013.9         
17:15 22.08 З  16 км    10/10 480 м  +25.0  +22.0  83  +32  +32  очень
душно 
  1013.9         
17:35 22.08   16 км    8/8 480 м  +25.0  +22.0  83  +32  +37  очень
душно 
  1013.6         
17:55 22.08   16 км    8/8 540 м  +26.0  +22.0  79  +34  +38  очень
душно 
  1013.6         
18:15 22.08 ЮЗ  16 км    10/10 540 м  +25.0  +22.0  83  +32  +32  очень
душно 
  1013.6         
18:35 22.08 ЮЗ  16 км    8/8 540 м  +26.0  +22.0  79  +34  +36  очень
душно 
  1013.3         
18:55 22.08   16 км    8/8 690 м  +26.0  +22.0  79  +34  +38  очень
душно 
  1013.3         
19:15 22.08 СВ  16 км    10/10 690 м  +25.0  +23.0  89  +33  +33  очень
душно 
  1013.6         
19:35 22.08 СВ  800 м  сильный дождь  10/10 450 м  +24.0  +23.0  94  +32  +32  очень
душно 
  1013.6         
19:55 22.08   16 км    8/8 510 м  +23.0  +22.0  94  +31  +34  очень
душно 
  1013.9         
20:15 22.08 ЮВ  16 км    5/5 870 м  +23.0  +23.0  100  +32  +35  очень
душно 
  1013.9         
20:35 22.08   16 км    5/0 2250 м
[средняя] 
+23.0  +23.0  100  +32  +37  очень
душно 
  1013.9         
20:55 22.08 ЮВ  16 км    8/0 2250 м
[средняя] 
+23.0  +23.0  100  +32  +34  очень
душно 
  1013.9         

 

Местоположение метеостанции Washington Regional Airport: широта 37.5200 долгота -76.7600 высота над уровнем моря 7 м.

В архиве по умолчанию представлена погода в Вашингтоне за последние 1-2 суток. Обновление информации о фактической погоде в базе происходит ежечасно! Архивные данные за месяц целиком и за предыдущие месяцы Вы можете получить, выбрав интересующий диапазон дат из раскрывающегося списка и нажав кнопку "Ввод!".

Внимание! Архив погоды МЕТАР в базе сайта хранится не более 60 дней. Нет смысла пытаться выбрать более раннюю дату.

Внимание! Время в таблицах - всемирное. Для получения местного времени необходимо прибавить поправку, которая в Вашингтоне равна -6 ч.

Ветер - указаны скорость ветра в м/с и направление, откуда дует ветер: С - северный, СВ - северо-восточный, В - восточный, ЮВ - юго-восточный, Ю - южный, ЮЗ - юго-западный, З - западный, СЗ - северо-западный.
Видимость - горизонтальная дальность видимости в метрах или километрах. При видимости от 1 до 10 км при отсутствии осадков обычно наблюдается дымка, при ухудшении видимости до 1 км и менее - туман. В сухую погоду видимость может ухудшаться дымом, пылью или мглою.
Атмосферные явления - указаны явления, наблюдавшиеся в указанный момент времени.
Облачность - указаны через наклонную черту верхняя и нижняя облачность в баллах и высота нижней границы облаков в метрах. Внимание: облачность, как и прочие метеорологические величины в США измеряются автоматическими метеостанциями. Указанные значения в баллах носят условный характер и показывают процент времени, в течение которого, в среднем, лазерный луч высотомера отражался от облаков обратно.
T - Температура воздуха - температура, измеренная на высоте 2 м над землей.
Td - Температура точки росы - температура, при понижении до которой содержащийся в воздухе водяной пар достигнет насыщения.
f - Относительная влажность воздуха - влажноcть воздуха, измеренная на высоте 2 м над землей.
Te - Эффективная температура - температура, которую ощущает одетый по сезону человек в тени. Характеристика душности погоды. При расчете учитывается влияние влажности воздуха и скорости ветра на теплоощущения человека.
Tes - Эффективная температура на солнце - температура, которую ощущает человек, с поправкой на солнечный нагрев. Характеристика знойности погоды. Зависит от высоты солнца над горизонтом, облачности и скорости ветра. Ночью, в пасмурную погоду, а также при ветре 12 м/с и более поправка равна нулю.
P - Атмосферное давление - приведенное к уровню моря атмосферное давление.
Po - Атмосферное давление - измеренное на уровне метеостанции атмосферное давление.
Tmin - Минимальная температура - минимум температуры воздуха на высоте 2 м над землей.
Tmax - Максимальная температура - максимум температуры воздуха на высоте 2 м над землей.
R - Количество осадков - Количество выпавших осадков за 3 или 6 часов, мм.
SD - Снежный покров - Высота снежного покрова, см.